Flag for Greenland Weather past 2 weeks in Sisimiut, Greenland

Now
6 °F

Clear.


Feels Like: -3 °F
Forecast: N/A
Wind: 5 mph from Northeast

Location: Sdr Stroemfjord

Current Time: Mar 27, 2015 at 8:01:58 PM

Latest Report: Mar 27, 2015 at 7:00 PM


Visibility: 31 mi

Pressure: 29.41 "Hg

Humidity: 51%

Dew point: -8 °F

Location of SisimiutLocation

Historic Weather in Sisimiut — Graph

°F

Sisimiut temperature yesterday

Maximum temperature yesterday: 11 °F (at 2:00 PM)
Minimum temperature yesterday: -1 °F (at 11:00 PM)
Average temperature yesterday: 4 °F

Past Weeks' High & Low Weather Summary

 TemperatureHumidityPressure
High40 °F (Mar 19, 2:00 PM)91% (Mar 21, 12:00 AM)30.11 "Hg (Mar 21, 12:00 AM)
Low-29 °F (Mar 13, 4:00 AM)27% (Mar 24, 12:00 PM)28.85 "Hg (Mar 13, 9:00 PM)
Average8 °F63%29.54 "Hg
* Reported Mar 12 5:00 PM — Mar 27 5:00 PM, Sisimiut, Weather by CustomWeather, © 2015

Note: Actual official high and low records may vary slightly from our data, if they occured in-between our weather recording intervals... More about our weather records

Advertising

Sisimiut weather history for previous 24 hours

 ConditionsComfort  
Time TempWeatherWind HumidityBarometerVisibility
5:00 PM
Fri, Mar 27
13 °FSunny.8 mph42%29.41 "Hg28 mi
4:00 PM13 °FPartly sunny.8 mph39%29.44 "Hg25 mi
3:00 PM13 °FScattered clouds.8 mph39%29.44 "Hg47 mi
2:00 PM13 °FOvercast.8 mph39%29.44 "Hg25 mi
1:00 PM11 °FPassing clouds.8 mph40%29.47 "Hg13 mi
12:00 PM10 °FOvercast.9 mph42%29.47 "Hg25 mi
11:00 AM9 °FPartly sunny.10 mph44%29.47 "Hg22 mi
10:00 AM6 °FOvercast.9 mph52%29.50 "Hg28 mi
9:00 AM5 °FPartly sunny.9 mph53%29.50 "Hg22 mi
8:00 AM3 °FScattered clouds.10 mph58%29.50 "Hg22 mi
7:00 AM0 °FOvercast.10 mph68%29.50 "Hg11 mi
6:00 AM-1 °FOvercast.7 mph70%29.50 "Hg31 mi
5:00 AM-1 °FSnow flurries. Overcast.9 mph70%29.50 "Hg22 mi
4:00 AM-1 °FSnow flurries. Overcast.9 mph71%29.50 "Hg10 mi
3:00 AM-2 °FOvercast.9 mph74%29.47 "Hg19 mi
2:00 AM-2 °FOvercast.7 mph76%29.47 "Hg14 mi
1:00 AM-3 °FSnow flurries. Overcast.7 mph79%29.47 "Hg7 mi
11:00 PM
Thu, Mar 26
-1 °FSnow flurries. Overcast.5 mph75%29.44 "Hg8 mi
10:00 PM1 °FSnow flurries. Overcast.5 mph72%29.44 "Hg4 mi
9:00 PM0 °FPassing clouds.2 mph70%29.44 "Hg31 mi
8:00 PM1 °FOvercast.1 mph66%29.44 "Hg31 mi
Weather by CustomWeather, © 2015

See weather overviewHow to use our weather pages